This demonstration page uses our WeatherBlox Daily Observations layout. Learn more.

36.19886, -115.1175

Hourly Observations for July 28, 2018

Temp ( °F °C ) Dew Point ( °F °C ) Humidity (%) Winds ( mph kmh ) Pressure ( in mb ) Visibility ( mi km ) Precip ( " mm )
12:53 am 00:53 Clear 95 35 46 7.8 19 19 Calm 29.74 1007 10 16.09344 0 0
1:53 am 01:53 Clear 93 33.9 47 8.3 21 21 NW 9 15 29.77 1008 10 16.09344 0 0
2:53 am 02:53 Clear 90 32.2 44 6.7 20 20 NW 8 13 29.77 1008 10 16.09344 0 0
3:53 am 03:53 Clear 90 32.2 44 6.7 20 20 WNW 7 11 29.77 1008 10 16.09344 0 0
4:53 am 04:53 Clear 89 31.7 44 6.7 21 21 NW 6 9 29.8 1009 10 16.09344 0 0
5:53 am 05:53 Sunny 87 30.6 47 8.3 25 25 N 5 7 29.8 1009 10 16.09344 0 0
6:53 am 06:53 Sunny 89 31.7 53 11.7 29 29 ENE 5 7 29.83 1010 10 16.09344 0 0
7:53 am 07:53 Sunny 93 33.9 53 11.7 26 26 SE 7 11 29.85 1011 10 16.09344 0 0
8:53 am 08:53 Sunny with Nearby Thunderstorms 96 35.6 52 11.1 23 23 ESE 12 19 29.85 1011 10 16.09344 0 0
9:09 am 09:09 Sunny 97 36.1 51 10.6 21 21 ESE 7 11 29.77 1008 10 16.09344 0 0
9:53 am 09:53 Sunny 98 36.7 48 8.9 18 18 SE 5 7 29.88 1012 10 16.09344 0 0
10:03 am 10:03 Sunny with Nearby Thunderstorms 99 37.2 48 8.9 18 18 SSE 3 6 29.74 1007 10 16.09344 0 0
10:31 am 10:31 Sunny 101 38.3 48 8.9 17 17 N 3 6 29.74 1007 10 16.09344 0 0
10:53 am 10:53 Sunny 103 39.4 46 7.8 15 15 SSE 6 9 29.85 1011 10 16.09344 0 0
11:53 am 11:53 Sunny 106 41.1 42 5.6 11 11 SE 15 24 29.85 1011 10 16.09344 0 0
12:53 pm 12:53 Sunny 108 42.2 41 5 10 10 SSE 8 13 29.83 1010 10 16.09344 0 0
1:53 pm 13:53 Sunny 110 43.3 40 4.4 9 9 SSW 10 17 29.8 1009 10 16.09344 0 0
2:41 pm 14:41 Sunny with Nearby Thunderstorms 111 43.9 41 5 9 9 SW 10 17 29.59 1002 10 16.09344 0 0
2:53 pm 14:53 Sunny 111 43.9 40 4.4 9 9 SW 12 19 29.8 1009 10 16.09344 0 0
3:53 pm 15:53 Sunny 111 43.9 38 3.3 8 8 WSW 13 20 29.77 1008 10 16.09344 0 0
4:17 pm 16:17 Sunny with Nearby Thunderstorms 111 43.9 38 3.3 8 8 SW 15 24 29.56 1001 10 16.09344 0 0
4:36 pm 16:36 Sunny with Thunderstorms 111 43.9 37 2.8 8 8 WSW 14 22 29.56 1001 10 16.09344 0 0
4:53 pm 16:53 Sunny with Thunderstorms 111 43.9 40 4.4 9 9 SW 17 28 29.74 1007 10 16.09344 0 0
5:11 pm 17:11 Sunny with Nearby Thunderstorms 110 43.3 40 4.4 9 9 SW 14 22 29.53 1000 10 16.09344 0 0
5:27 pm 17:27 Sunny 110 43.3 43 6.1 10 10 WSW 13 20 29.53 1000 10 16.09344 0 0
5:53 pm 17:53 Sunny 110 43.3 42 5.6 10 10 W 16 26 29.74 1007 10 16.09344 0 0
6:53 pm 18:53 Sunny 108 42.2 41 5 10 10 W 12 19 29.74 1007 10 16.09344 0 0
7:13 pm 19:13 Sunny with Nearby Thunderstorms 107 41.7 42 5.6 11 11 WSW 14 22 29.56 1001 10 16.09344 0 0
7:24 pm 19:24 Sunny with Thunderstorms 107 41.7 42 5.6 11 11 WSW 13 20 29.56 1001 10 16.09344 0 0
7:53 pm 19:53 Clear 106 41.1 43 6.1 12 12 SW 13 20 29.74 1007 10 16.09344 0 0
8:53 pm 20:53 Clear 104 40 45 7.2 13 13 SW 10 17 29.77 1008 10 16.09344 0 0
9:53 pm 21:53 Clear 102 38.9 48 8.9 16 16 SSW 7 11 29.8 1009 10 16.09344 0 0
10:53 pm 22:53 Clear 100 37.8 50 10 18 18 WSW 3 6 29.83 1010 10 16.09344 0 0
11:53 pm 23:53 Clear 99 37.2 52 11.1 21 21 SW 9 15 29.83 1010 10 16.09344 0 0

Powered by AerisWeather